Regional Weather Roundup
Issued by NWS Boston, MA

Home | Current Version | Previous Version | Text Only | Print | Product List | Glossary On
Versions: 1 2 3 4 5 6 7 8 9 10 11 12 13 14 15 16 17 18 19 20 21 22 23 24 25 26 27
000
ASUS41 KBOX 252310
RWRBOX

REGIONAL WEATHER ROUNDUP
NATIONAL WEATHER SERVICE TAUNTON MA
600 PM EST SUN FEB 25 2018

NOTE:  "FAIR" INDICATES FEW OR NO CLOUDS BELOW 12,000 FEET WITH NO
SIGNIFICANT WEATHER AND/OR OBSTRUCTIONS TO VISIBILITY.

MAZALL-260000-
EASTERN MASSACHUSETTS

CITY           SKY/WX    TMP DP  RH WIND       PRES   REMARKS
BOSTON         CLOUDY    40  40 100 NE15      30.00S WCI  32
BEVERLY        CLOUDY    41  39  93 NE9       30.00F
LAWRENCE       CLOUDY    41  38  89 E9        30.01F
BEDFORD        CLOUDY    40  39  97 NE8       29.98F
BLUE HILL        N/A    N/A N/A N/A NE12G21   29.93F
NORWOOD        CLOUDY    42  40  92 NE8       29.96F
MARSHFIELD     CLOUDY    41  41 100 VRB7G14   29.96F FOG
PLYMOUTH       CLOUDY    43  40  89 NE12      29.92F FOG
TAUNTON        CLOUDY    42  41  96 VRB5      29.94F
NEW BEDFORD    CLOUDY    43  43 100 NW8       29.91F
$$

MAZALL-260000-
CAPE COD AND THE ISLANDS

CITY           SKY/WX    TMP DP  RH WIND       PRES   REMARKS
FALMOUTH       CLOUDY    43  43 100 NE13      29.87  FOG
HYANNIS        LGT RAIN  45  43  93 E10       29.87F FOG
CHATHAM        LGT RAIN  45  45 100 E9        29.89F FOG
PROVINCETOWN   LGT RAIN  42  41  96 NE7       29.95S FOG
NANTUCKET      LGT RAIN  45  45 100 SE12      29.88S FOG
MARTHAS VNYRD  CLOUDY    45  44  97 NE7       29.86F FOG
$$

MAZALL-260000-
CENTRAL AND WESTERN MASSACHUSETTS

CITY           SKY/WX    TMP DP  RH WIND       PRES   REMARKS
WORCESTER      FOG       35  34  96 NE8G16    29.95S VSB 1/4 WCI  29
FITCHBURG      CLOUDY    40  38  93 VRB3      30.00F
ORANGE         CLOUDY    35  35 100 CALM      29.99F
SPRINGFIELD    CLOUDY    37  36  96 NE6       29.96
WESTFIELD      CLOUDY    37  37 100 N9        29.97F WCI  30
NORTH ADAMS    CLOUDY    37  31  78 E12       29.97R WCI  29
PITTSFIELD     CLOUDY    36  32  85 NE6       29.94R WCI  31
$$

RIZALL-260000-
RHODE ISLAND

CITY           SKY/WX    TMP DP  RH WIND       PRES   REMARKS
PROVIDENCE     CLOUDY    42  42 100 N12       29.94F
NEWPORT        CLOUDY    41  41 100 N14G21    29.92F
BLOCK ISLAND   CLOUDY    41  41 100 N12       29.93R
SMITHFIELD     CLOUDY    39  38  96 MISG      29.93F
WESTERLY       MOCLDY    43  42  97 N8        29.93F
$$

CTZALL-260000-
CONNECTICUT

CITY           SKY/WX    TMP DP  RH WIND       PRES   REMARKS
BRADLEY INTL   CLOUDY    38  37  97 N10       29.96F WCI  31
HARTFORD       CLOUDY    40  39  97 N8        29.97F
BRIDGEPORT     CLOUDY    44  40  85 N5        29.96S
DANBURY        CLOUDY    42  40  92 E3        29.96F
GROTON         MOCLDY    43  40  89 N13       29.92F
NEW HAVEN      CLOUDY    43  40  89 N8        29.95S
CHESTER        CLOUDY    41  41 100 N8        29.95R
MERIDEN        CLOUDY    40  38  93 N9        29.97R
WILLIMANTIC    CLOUDY    41  38  89 N5        29.96S
OXFORD         CLOUDY    39  38  96 NE5       29.94F
$$

MEZ002-015-021-024-NHZ003-005-008-011-012-014-VTZ005-008-260000-
NORTHERN NEW ENGLAND

CITY           SKY/WX    TMP DP  RH WIND       PRES   REMARKS
PORTLAND ME    LGT RAIN  36  36 100 E13       30.07F FOG     WCI  27
BANGOR ME      FRZ DRZL  33  32  96 SE5       30.14F FOG     WCI  29
CONCORD NH     CLOUDY    35  33  92 N5        30.03S FOG     WCI  31
MANCHESTER NH  CLOUDY    37  36  96 N6        30.01F FOG
NASHUA NH      LGT RAIN  37  37 100 VRB3      30.02F FOG
PORTSMOUTH NH  LGT RAIN  38  38  99 E7        30.02F FOG
JAFFREY NH     CLOUDY    35  35 100 VRB3      29.98R
KEENE NH       CLOUDY    36  34  93 CALM      30.00F FOG
BURLINGTON VT  MOCLDY    37  34  89 S13       29.90R WCI  29
MT. WASHINGTON SNOW      18  18 100 S33G44      N/A  VSB 1/16WCI  -3
$$

NYZ052-076-260000-
EASTERN NEW YORK

CITY           SKY/WX    TMP DP  RH WIND       PRES   REMARKS
ALBANY         CLOUDY    41  36  82 S7        29.96R
NEW YORK CITY  CLOUDY    42  40  92 E5        29.97S
$$

ANZALL-260000-
MARINE OBSERVATIONS

STATION/POSITION TIME  TEMP    WIND        PRES    VSBY  WAVE
                       AIR SEA DIR/SP/G                  HT/PER
                 (UTC) (F)     (DEG/KT/KT) (MB)    (MI)  (FT/S)
BOSTON BUOY      2250   40 40   60/ 14/ 16 1014.0F         7/ 7
BUZZARDS BAY     2200   40     360/ 18/ 20 1013.5R
NANTUCKET SOUND  2150   43 40  120/ 21/ 27 1010.1          4/ 5
MASS BAY-STELLWA 2204   40 39              1015.8R         8/ 6
ISLE OF SHOALS   2300   39      70/ 15/ 16 1016.5F
S OF BLOCK IS    2243      41                N/A           6/ 7
$$

......................KEY.........................
  SKY/WX - SKY CONDITION/PRESENT WEATHER
  TMP    - TEMPERATURE IN FAHRENHEIT
  DWPT   - DEWPOINT IN FAHRENHEIT
  RH     - RELATIVE HUMIDITY IN PERCENT
  WIND   - DIRECTION AND SPEED IN MPH
  PRES   - MEAN SEA LEVEL PRESSURE IN INCHES OF HG
  WCI    - WIND CHILL INDEX
  VSB    - VISIBILITY IN MILES
  HX     - HEAT INDEX
  TC     - TEMPERATURE IN CELSIUS
  VRB    - VARIABLE WIND DIRECTION
  N/A    - NOT AVAILABLE




USA.gov is the U.S. government's official web portal to all federal, state and local government web resources and services.